Location: Bauen
(46.9356°N, 8.5784°E)
Time: 05:04:14
(UTC+00:00)

Cosmos 1459 Rocket - Pass Details

Date: 18 February 2020
Orbit: 938 x 999 km, 83.0° (Epoch: 29 March)

Event Time Altitude Azimuth Distance (km) Brightness Sun altitude
Rises 05:35:49 0° 345° (NNW) 3,640 6.8 -9.3°
Reaches altitude 10° 05:38:27 10° 338° (NNW) 2,698 6.0 -8.8°
Maximum altitude 05:44:06 40° 271° (W) 1,403 4.4 -7.9°
Drops below altitude 10° 05:49:49 10° 205° (SSW) 2,720 6.2 -6.9°
Sets 05:52:29 0° 198° (SSW) 3,672 6.9 -6.4°
